COSMOS 2242 (22626 NORAD) Tracking and Keplerian Element Data

This shows tracking and keplerian element data for the satellite.

Feedback or suggestion? Click here.




ElementValue
Catalog22626
NameCOSMOS 2242
Epoch Orbit38697
Epoch Day348.78518662
Epoch Year2018
RAAN247.367
Inclination82.5231
Eccentricity0.0020418
Argument of Perigee107.9532
Mean Anonmoly252.3913
Mean Motion14.87858006
Decay Rate1.66E-06
L11 22626U 93024A 18348.78518662 .00000166 00000-0 15327-4 0 9998
L22 22626 82.5231 247.3670 0020418 107.9532 252.3913 14.87858006386977

Live tracking and technical data element details for COSMOS 2242 (NORAD 22626). COSMOS 2242 can be tracked NOW for your location showing map with azimuth and elevation plus other details from your city location.

Track the satellite on the map from your city or location and see movement details for azimuth, elevation, latitude, longitude, range, height, and movement on the map or in text.







IsCatalogInMostPopularTable: catalog: 22626, numindb: 46
Update: records affected: 1



GetName: 22626 COSMOS 2242

Hit Count: updated at: Sat, 15 Dec 2018 13:16:34 GMT